Time,TemperatureF,DewpointF,PressureIn,WindDirection,WindDirectionDegrees,WindSpeedMPH,WindSpeedGustMPH,Humidity,HourlyPrecipIn,Conditions,Clouds,dailyrainin,SoftwareType,DateUTC
2013-02-11 00:00:00,41.7,37.8,30.23,NE,55,0.0,0.0,86,0.00,,,0.00,Wunderground v.1.15,2013-02-11 05:00:00,
2013-02-11 00:10:00,42.0,38.1,30.24,SE,131,1.0,2.0,86,0.00,,,0.00,Wunderground v.1.15,2013-02-11 05:10:00,
2013-02-11 00:15:00,42.3,38.4,30.23,SSE,150,1.0,2.0,86,0.00,,,0.00,Wunderground v.1.15,2013-02-11 05:15:00,
2013-02-11 00:20:00,42.4,38.8,30.23,SSE,167,1.0,1.0,87,0.00,,,0.00,Wunderground v.1.15,2013-02-11 05:20:00,
2013-02-11 00:25:00,42.6,39.0,30.23,SSE,154,1.0,1.0,87,0.00,,,0.00,Wunderground v.1.15,2013-02-11 05:25:00,
2013-02-11 00:30:00,42.7,39.1,30.22,SE,133,1.0,2.0,87,0.00,,,0.00,Wunderground v.1.15,2013-02-11 05:30:00,
2013-02-11 00:35:00,42.8,39.2,30.22,East,85,0.0,2.0,87,0.00,,,0.00,Wunderground v.1.15,2013-02-11 05:35:00,
2013-02-11 00:40:00,42.9,39.6,30.22,ESE,103,1.0,1.0,88,0.00,,,0.00,Wunderground v.1.15,2013-02-11 05:40:00,
2013-02-11 00:50:00,43.1,39.8,30.20,SE,140,0.0,0.0,88,0.00,,,0.00,Wunderground v.1.15,2013-02-11 05:50:00,
2013-02-11 01:00:00,43.3,40.3,30.20,ENE,69,1.0,1.0,89,0.00,,,0.00,Wunderground v.1.15,2013-02-11 06:00:00,
2013-02-11 01:05:00,43.4,40.4,30.20,SSE,165,0.0,1.0,89,0.00,,,0.00,Wunderground v.1.15,2013-02-11 06:05:00,
2013-02-11 01:10:00,43.5,40.5,30.19,ESE,122,0.0,0.0,89,0.00,,,0.00,Wunderground v.1.15,2013-02-11 06:10:00,
2013-02-11 01:15:00,43.6,40.6,30.19,SE,146,0.0,0.0,89,0.00,,,0.00,Wunderground v.1.15,2013-02-11 06:15:00,
2013-02-11 01:20:00,43.7,40.7,30.19,SE,126,0.0,2.0,89,0.00,,,0.00,Wunderground v.1.15,2013-02-11 06:20:00,
2013-02-11 01:25:00,43.8,41.1,30.19,East,86,1.0,2.0,90,0.00,,,0.00,Wunderground v.1.15,2013-02-11 06:25:00,
2013-02-11 01:30:00,43.8,41.1,30.18,ESE,116,0.0,1.0,90,0.00,,,0.00,Wunderground v.1.15,2013-02-11 06:30:00,
2013-02-11 01:35:00,43.9,41.2,30.19,SE,126,0.0,1.0,90,0.00,,,0.00,Wunderground v.1.15,2013-02-11 06:35:00,
2013-02-11 01:40:00,44.0,41.3,30.19,SE,134,0.0,1.0,90,0.00,,,0.00,Wunderground v.1.15,2013-02-11 06:40:00,
2013-02-11 01:45:00,44.0,41.3,30.19,ESE,121,0.0,1.0,90,0.00,,,0.00,Wunderground v.1.15,2013-02-11 06:45:00,
2013-02-11 01:50:00,44.2,41.5,30.19,ESE,106,0.0,0.0,90,0.00,,,0.00,Wunderground v.1.15,2013-02-11 06:50:00,
2013-02-11 01:55:00,44.3,41.8,30.19,SSW,196,0.0,0.0,91,0.00,,,0.00,Wunderground v.1.15,2013-02-11 06:55:00,
2013-02-11 02:00:00,44.5,42.0,30.19,SE,130,0.0,0.0,91,0.00,,,0.00,Wunderground v.1.15,2013-02-11 07:00:00,
2013-02-11 02:05:00,44.6,42.1,30.19,SE,130,0.0,0.0,91,0.00,,,0.00,Wunderground v.1.15,2013-02-11 07:05:00,
2013-02-11 02:10:00,44.8,42.3,30.19,SE,135,0.0,1.0,91,0.00,,,0.00,Wunderground v.1.15,2013-02-11 07:10:00,
2013-02-11 02:15:00,45.0,42.8,30.18,ESE,108,0.0,1.0,92,0.00,,,0.00,Wunderground v.1.15,2013-02-11 07:15:00,
2013-02-11 02:20:00,45.2,43.0,30.18,ESE,117,0.0,2.0,92,0.00,,,0.00,Wunderground v.1.15,2013-02-11 07:20:00,
2013-02-11 02:30:00,45.7,43.5,30.17,SSE,153,1.0,5.0,92,0.00,,,0.00,Wunderground v.1.15,2013-02-11 07:30:00,
2013-02-11 02:35:00,45.9,43.7,30.17,ESE,114,1.0,5.0,92,0.00,,,0.00,Wunderground v.1.15,2013-02-11 07:35:00,
2013-02-11 02:40:00,46.1,43.9,30.17,ESE,117,0.0,0.0,92,0.00,,,0.00,Wunderground v.1.15,2013-02-11 07:40:00,
2013-02-11 02:45:00,46.4,44.2,30.18,SE,127,0.0,0.0,92,0.00,,,0.00,Wunderground v.1.15,2013-02-11 07:45:00,
2013-02-11 02:50:00,46.5,44.3,30.18,SE,131,0.0,0.0,92,0.00,,,0.00,Wunderground v.1.15,2013-02-11 07:50:00,
2013-02-11 02:55:00,46.8,44.9,30.17,SSE,159,0.0,0.0,93,0.00,,,0.00,Wunderground v.1.15,2013-02-11 07:55:00,
2013-02-11 03:00:00,47.0,45.1,30.17,ESE,103,0.0,0.0,93,0.00,,,0.00,Wunderground v.1.15,2013-02-11 08:00:00,
2013-02-11 03:05:00,47.3,45.4,30.17,East,94,1.0,1.0,93,0.00,,,0.00,Wunderground v.1.15,2013-02-11 08:05:00,
2013-02-11 03:10:00,47.4,45.5,30.17,SSE,164,0.0,0.0,93,0.00,,,0.00,Wunderground v.1.15,2013-02-11 08:10:00,
2013-02-11 03:15:00,47.5,45.6,30.17,SSW,211,0.0,0.0,93,0.00,,,0.00,Wunderground v.1.15,2013-02-11 08:15:00,
2013-02-11 03:20:00,47.6,45.4,30.16,South,191,0.0,0.0,92,0.00,,,0.00,Wunderground v.1.15,2013-02-11 08:20:00,
2013-02-11 03:25:00,47.8,45.9,30.16,South,169,0.0,0.0,93,0.00,,,0.00,Wunderground v.1.15,2013-02-11 08:25:00,
2013-02-11 03:30:00,47.9,46.0,30.15,SE,142,0.0,0.0,93,0.00,,,0.00,Wunderground v.1.15,2013-02-11 08:30:00,
2013-02-11 03:35:00,48.1,46.2,30.15,SSE,148,0.0,0.0,93,0.00,,,0.00,Wunderground v.1.15,2013-02-11 08:35:00,
2013-02-11 03:40:00,48.2,46.3,30.15,SSE,148,0.0,0.0,93,0.00,,,0.00,Wunderground v.1.15,2013-02-11 08:40:00,
2013-02-11 03:45:00,48.2,46.3,30.15,SSE,148,0.0,0.0,93,0.00,,,0.00,Wunderground v.1.15,2013-02-11 08:45:00,
2013-02-11 03:50:00,48.2,46.3,30.15,SSE,148,0.0,0.0,93,0.00,,,0.00,Wunderground v.1.15,2013-02-11 08:50:00,
2013-02-11 03:55:00,48.2,46.3,30.14,SSE,148,0.0,0.0,93,0.00,,,0.00,Wunderground v.1.15,2013-02-11 08:55:00,
2013-02-11 04:00:00,48.2,46.3,30.14,SSE,148,0.0,0.0,93,0.00,,,0.00,Wunderground v.1.15,2013-02-11 09:00:00,
2013-02-11 04:05:00,48.2,46.3,30.14,SSE,148,0.0,0.0,93,0.00,,,0.00,Wunderground v.1.15,2013-02-11 09:05:00,
2013-02-11 04:10:00,48.3,46.4,30.13,SSE,147,0.0,0.0,93,0.00,,,0.00,Wunderground v.1.15,2013-02-11 09:10:00,
2013-02-11 04:15:00,48.4,46.8,30.13,SSE,151,0.0,0.0,94,0.00,,,0.00,Wunderground v.1.15,2013-02-11 09:15:00,
2013-02-11 04:20:00,48.5,46.9,30.13,SSE,151,0.0,0.0,94,0.00,,,0.00,Wunderground v.1.15,2013-02-11 09:20:00,
2013-02-11 04:30:00,48.7,47.1,30.13,SSE,157,0.0,0.0,94,0.00,,,0.00,Wunderground v.1.15,2013-02-11 09:30:00,
2013-02-11 04:35:00,48.7,47.1,30.13,SSE,157,0.0,0.0,94,0.00,,,0.00,Wunderground v.1.15,2013-02-11 09:35:00,
2013-02-11 04:40:00,48.8,47.2,30.13,SSE,151,0.0,0.0,94,0.00,,,0.00,Wunderground v.1.15,2013-02-11 09:40:00,
2013-02-11 04:50:00,49.0,47.3,30.13,SE,136,0.0,0.0,94,0.00,,,0.00,Wunderground v.1.15,2013-02-11 09:50:00,
2013-02-11 04:55:00,49.1,47.7,30.12,SE,134,0.0,0.0,95,0.00,,,0.00,Wunderground v.1.15,2013-02-11 09:55:00,
2013-02-11 05:00:00,49.1,47.7,30.13,SSE,165,0.0,0.0,95,0.00,,,0.00,Wunderground v.1.15,2013-02-11 10:00:00,
2013-02-11 05:05:00,49.2,47.8,30.13,ESE,107,0.0,2.0,95,0.00,,,0.00,Wunderground v.1.15,2013-02-11 10:05:00,
2013-02-11 05:10:00,49.3,47.9,30.12,ESE,111,0.0,0.0,95,0.00,,,0.00,Wunderground v.1.15,2013-02-11 10:10:00,
2013-02-11 05:15:00,49.4,48.0,30.12,SE,143,1.0,1.0,95,0.00,,,0.00,Wunderground v.1.15,2013-02-11 10:15:00,
2013-02-11 05:20:00,49.4,48.0,30.11,South,171,0.0,0.0,95,0.00,,,0.00,Wunderground v.1.15,2013-02-11 10:20:00,
2013-02-11 05:30:00,49.5,48.1,30.12,SE,132,0.0,0.0,95,0.00,,,0.00,Wunderground v.1.15,2013-02-11 10:30:00,
2013-02-11 05:35:00,49.5,48.1,30.12,SE,132,0.0,1.0,95,0.00,,,0.00,Wunderground v.1.15,2013-02-11 10:35:00,
2013-02-11 05:40:00,49.6,48.2,30.12,SSW,196,0.0,0.0,95,0.00,,,0.00,Wunderground v.1.15,2013-02-11 10:40:00,
2013-02-11 05:50:00,49.7,48.6,30.12,ESE,119,0.0,0.0,96,0.00,,,0.00,Wunderground v.1.15,2013-02-11 10:50:00,
2013-02-11 06:00:00,49.9,48.8,30.12,SW,216,0.0,0.0,96,0.00,,,0.00,Wunderground v.1.15,2013-02-11 11:00:00,
2013-02-11 06:10:00,50.0,48.9,30.11,East,94,0.0,4.0,96,0.00,,,0.00,Wunderground v.1.15,2013-02-11 11:10:00,
2013-02-11 06:15:00,50.1,49.0,30.10,SE,138,0.0,4.0,96,0.00,,,0.00,Wunderground v.1.15,2013-02-11 11:15:00,
2013-02-11 06:20:00,50.2,49.1,30.11,SE,138,0.0,0.0,96,0.00,,,0.00,Wunderground v.1.15,2013-02-11 11:20:00,
2013-02-11 06:30:00,50.3,49.2,30.11,SE,138,0.0,0.0,96,0.00,,,0.00,Wunderground v.1.15,2013-02-11 11:30:00,
2013-02-11 06:35:00,50.4,49.3,30.11,SE,136,0.0,0.0,96,0.00,,,0.00,Wunderground v.1.15,2013-02-11 11:35:00,
2013-02-11 06:40:00,50.5,49.4,30.11,South,184,0.0,0.0,96,0.00,,,0.00,Wunderground v.1.15,2013-02-11 11:40:00,
2013-02-11 06:45:00,50.5,49.4,30.11,South,183,0.0,0.0,96,0.00,,,0.00,Wunderground v.1.15,2013-02-11 11:45:00,
2013-02-11 06:50:00,50.7,49.6,30.11,South,183,0.0,0.0,96,0.00,,,0.00,Wunderground v.1.15,2013-02-11 11:50:00,
2013-02-11 07:00:00,50.9,49.8,30.11,South,184,0.0,0.0,96,0.00,,,0.00,Wunderground v.1.15,2013-02-11 12:00:00,
2013-02-11 07:10:00,51.0,49.9,30.11,SW,215,0.0,0.0,96,0.00,,,0.00,Wunderground v.1.15,2013-02-11 12:10:00,
2013-02-11 07:20:00,51.2,50.1,30.11,SW,215,0.0,0.0,96,0.00,,,0.00,Wunderground v.1.15,2013-02-11 12:20:00,
2013-02-11 07:30:00,51.3,50.2,30.10,SW,215,0.0,0.0,96,0.00,,,0.00,Wunderground v.1.15,2013-02-11 12:30:00,
2013-02-11 07:40:00,51.8,50.7,30.10,South,170,0.0,0.0,96,0.00,,,0.00,Wunderground v.1.15,2013-02-11 12:40:00,
2013-02-11 07:45:00,52.0,51.2,30.10,South,171,0.0,0.0,97,0.00,,,0.00,Wunderground v.1.15,2013-02-11 12:45:00,
2013-02-11 07:50:00,52.1,51.3,30.09,East,86,0.0,0.0,97,0.00,,,0.00,Wunderground v.1.15,2013-02-11 12:50:00,
2013-02-11 07:55:00,52.3,51.5,30.09,East,88,0.0,0.0,97,0.00,,,0.00,Wunderground v.1.15,2013-02-11 12:55:00,
2013-02-11 08:00:00,52.6,51.8,30.08,SSE,157,0.0,0.0,97,0.00,,,0.00,Wunderground v.1.15,2013-02-11 13:00:00,
2013-02-11 08:10:00,53.0,52.2,30.07,South,185,1.0,1.0,97,0.00,,,0.00,Wunderground v.1.15,2013-02-11 13:10:00,
2013-02-11 08:15:00,53.2,52.4,30.07,South,173,1.0,1.0,97,0.00,,,0.00,Wunderground v.1.15,2013-02-11 13:15:00,
2013-02-11 08:20:00,53.5,52.7,30.07,South,178,1.0,1.0,97,0.00,,,0.00,Wunderground v.1.15,2013-02-11 13:20:00,
2013-02-11 08:25:00,53.7,52.9,30.07,SW,215,1.0,1.0,97,0.00,,,0.00,Wunderground v.1.15,2013-02-11 13:25:00,
2013-02-11 08:30:00,53.9,53.1,30.07,SW,217,1.0,1.0,97,0.00,,,0.00,Wunderground v.1.15,2013-02-11 13:30:00,
2013-02-11 08:35:00,54.1,53.3,30.07,SE,142,1.0,1.0,97,0.00,,,0.00,Wunderground v.1.15,2013-02-11 13:35:00,
2013-02-11 08:40:00,54.3,53.5,30.07,South,173,0.0,0.0,97,0.00,,,0.00,Wunderground v.1.15,2013-02-11 13:40:00,
2013-02-11 08:45:00,54.4,53.6,30.07,South,173,0.0,0.0,97,0.00,,,0.00,Wunderground v.1.15,2013-02-11 13:45:00,
2013-02-11 08:50:00,54.5,53.7,30.07,SSW,197,0.0,0.0,97,0.00,,,0.00,Wunderground v.1.15,2013-02-11 13:50:00,
2013-02-11 09:00:00,54.8,54.0,30.07,SSE,165,0.0,1.0,97,0.00,,,0.00,Wunderground v.1.15,2013-02-11 14:00:00,
2013-02-11 09:10:00,55.1,54.3,30.07,West,262,1.0,2.0,97,0.00,,,0.00,Wunderground v.1.15,2013-02-11 14:10:00,
2013-02-11 09:15:00,55.1,54.3,30.07,WSW,239,0.0,2.0,97,0.00,,,0.00,Wunderground v.1.15,2013-02-11 14:15:00,
2013-02-11 09:20:00,55.2,54.4,30.07,South,175,0.0,0.0,97,0.00,,,0.00,Wunderground v.1.15,2013-02-11 14:20:00,
2013-02-11 09:30:00,55.5,54.7,30.06,South,182,0.0,1.0,97,0.00,,,0.00,Wunderground v.1.15,2013-02-11 14:30:00,
2013-02-11 09:35:00,55.6,54.8,30.06,South,178,0.0,1.0,97,0.00,,,0.00,Wunderground v.1.15,2013-02-11 14:35:00,
2013-02-11 09:40:00,55.8,55.0,30.06,SW,228,0.0,0.0,97,0.00,,,0.00,Wunderground v.1.15,2013-02-11 14:40:00,
2013-02-11 09:45:00,55.9,55.1,30.06,SW,215,0.0,0.0,97,0.00,,,0.00,Wunderground v.1.15,2013-02-11 14:45:00,
2013-02-11 09:50:00,56.0,55.2,30.07,SW,215,0.0,0.0,97,0.00,,,0.00,Wunderground v.1.15,2013-02-11 14:50:00,
2013-02-11 09:55:00,56.0,55.2,30.07,SW,219,0.0,0.0,97,0.00,,,0.00,Wunderground v.1.15,2013-02-11 14:55:00,
2013-02-11 10:00:00,56.1,55.3,30.07,SSW,212,0.0,0.0,97,0.00,,,0.00,Wunderground v.1.15,2013-02-11 15:00:00,
2013-02-11 10:10:00,56.3,55.5,30.06,SW,234,1.0,1.0,97,0.00,,,0.00,Wunderground v.1.15,2013-02-11 15:10:00,
2013-02-11 10:15:00,56.5,55.7,30.07,South,177,1.0,1.0,97,0.00,,,0.00,Wunderground v.1.15,2013-02-11 15:15:00,
2013-02-11 10:20:00,56.6,55.8,30.07,WSW,243,0.0,1.0,97,0.00,,,0.00,Wunderground v.1.15,2013-02-11 15:20:00,
2013-02-11 10:30:00,56.9,56.1,30.07,WSW,240,1.0,1.0,97,0.00,,,0.00,Wunderground v.1.15,2013-02-11 15:30:00,
2013-02-11 10:35:00,57.0,56.2,30.06,South,184,0.0,2.0,97,0.00,,,0.00,Wunderground v.1.15,2013-02-11 15:35:00,
2013-02-11 10:40:00,57.1,56.3,30.06,SSW,195,0.0,0.0,97,0.00,,,0.00,Wunderground v.1.15,2013-02-11 15:40:00,
2013-02-11 10:45:00,57.2,56.4,30.05,SSE,157,1.0,2.0,97,0.00,,,0.00,Wunderground v.1.15,2013-02-11 15:45:00,
2013-02-11 10:50:00,57.3,56.5,30.05,South,191,0.0,0.0,97,0.00,,,0.00,Wunderground v.1.15,2013-02-11 15:50:00,
2013-02-11 10:55:00,57.4,56.6,30.05,South,180,1.0,1.0,97,0.00,,,0.00,Wunderground v.1.15,2013-02-11 15:55:00,
2013-02-11 11:00:00,57.5,56.7,30.04,SSE,161,1.0,1.0,97,0.00,,,0.00,Wunderground v.1.15,2013-02-11 16:00:00,
2013-02-11 11:10:00,57.6,56.8,30.04,SW,224,0.0,0.0,97,0.00,,,0.00,Wunderground v.1.15,2013-02-11 16:10:00,
2013-02-11 11:15:00,57.7,56.9,30.04,SSE,150,1.0,5.0,97,0.00,,,0.00,Wunderground v.1.15,2013-02-11 16:15:00,
2013-02-11 11:20:00,57.8,57.0,30.04,South,182,1.0,1.0,97,0.00,,,0.00,Wunderground v.1.15,2013-02-11 16:20:00,
2013-02-11 11:25:00,57.8,57.0,30.04,WNW,288,1.0,5.0,97,0.00,,,0.00,Wunderground v.1.15,2013-02-11 16:25:00,
2013-02-11 11:30:00,57.8,57.0,30.04,SW,229,2.0,2.0,97,0.00,,,0.00,Wunderground v.1.15,2013-02-11 16:30:00,
2013-02-11 11:35:00,57.8,57.0,30.03,SSW,193,1.0,2.0,97,0.00,,,0.00,Wunderground v.1.15,2013-02-11 16:35:00,
2013-02-11 11:40:00,57.9,57.1,30.03,SW,225,1.0,1.0,97,0.00,,,0.00,Wunderground v.1.15,2013-02-11 16:40:00,
2013-02-11 11:45:00,57.9,56.8,30.03,SW,219,1.0,2.0,96,0.00,,,0.00,Wunderground v.1.15,2013-02-11 16:45:00,
2013-02-11 11:50:00,58.0,56.9,30.02,SW,228,1.0,1.0,96,0.00,,,0.00,Wunderground v.1.15,2013-02-11 16:50:00,
2013-02-11 12:00:00,58.1,57.3,30.01,SSE,167,1.0,1.0,97,0.00,,,0.00,Wunderground v.1.15,2013-02-11 17:00:00,
2013-02-11 12:05:00,58.1,57.3,30.01,SSW,207,1.0,1.0,97,0.00,,,0.00,Wunderground v.1.15,2013-02-11 17:05:00,
2013-02-11 12:10:00,58.2,57.4,30.02,SSW,206,1.0,1.0,97,0.00,,,0.00,Wunderground v.1.15,2013-02-11 17:10:00,
2013-02-11 12:20:00,58.4,57.3,30.01,South,169,0.0,0.0,96,0.00,,,0.00,Wunderground v.1.15,2013-02-11 17:20:00,
2013-02-11 12:25:00,58.6,57.5,30.00,South,173,1.0,1.0,96,0.00,,,0.00,Wunderground v.1.15,2013-02-11 17:25:00,
2013-02-11 12:30:00,58.7,57.9,30.00,SSW,210,1.0,1.0,97,0.00,,,0.00,Wunderground v.1.15,2013-02-11 17:30:00,
2013-02-11 12:35:00,58.7,57.6,30.00,SW,236,2.0,2.0,96,0.00,,,0.00,Wunderground v.1.15,2013-02-11 17:35:00,
2013-02-11 12:40:00,58.8,57.7,30.00,West,261,2.0,2.0,96,0.00,,,0.00,Wunderground v.1.15,2013-02-11 17:40:00,
2013-02-11 12:45:00,58.9,57.8,30.01,SSW,207,2.0,8.0,96,0.00,,,0.00,Wunderground v.1.15,2013-02-11 17:45:00,
2013-02-11 12:50:00,59.0,57.9,30.00,SSW,207,1.0,1.0,96,0.00,,,0.00,Wunderground v.1.15,2013-02-11 17:50:00,
2013-02-11 12:55:00,59.0,57.9,30.00,SSW,205,1.0,1.0,96,0.00,,,0.00,Wunderground v.1.15,2013-02-11 17:55:00,
2013-02-11 13:00:00,59.1,58.0,30.00,SSW,195,1.0,1.0,96,0.00,,,0.00,Wunderground v.1.15,2013-02-11 18:00:00,
2013-02-11 13:05:00,59.2,58.1,30.00,WSW,244,1.0,1.0,96,0.00,,,0.00,Wunderground v.1.15,2013-02-11 18:05:00,
2013-02-11 13:10:00,59.2,58.1,29.99,SSE,164,1.0,1.0,96,0.00,,,0.00,Wunderground v.1.15,2013-02-11 18:10:00,
2013-02-11 13:15:00,59.2,57.8,29.99,SW,216,2.0,4.0,95,0.00,,,0.00,Wunderground v.1.15,2013-02-11 18:15:00,
2013-02-11 13:20:00,59.2,57.8,29.99,South,184,3.0,3.0,95,0.00,,,0.00,Wunderground v.1.15,2013-02-11 18:20:00,
2013-02-11 13:25:00,59.3,57.9,29.99,South,183,2.0,3.0,95,0.00,,,0.00,Wunderground v.1.15,2013-02-11 18:25:00,
2013-02-11 13:30:00,59.3,57.9,29.98,SSE,160,1.0,1.0,95,0.00,,,0.00,Wunderground v.1.15,2013-02-11 18:30:00,
2013-02-11 13:40:00,59.3,57.9,29.97,WSW,246,2.0,2.0,95,0.00,,,0.00,Wunderground v.1.15,2013-02-11 18:40:00,
2013-02-11 13:45:00,59.3,57.9,29.96,SE,139,1.0,2.0,95,0.00,,,0.00,Wunderground v.1.15,2013-02-11 18:45:00,
2013-02-11 13:50:00,59.3,57.9,29.95,SE,143,1.0,4.0,95,0.00,,,0.00,Wunderground v.1.15,2013-02-11 18:50:00,
2013-02-11 13:55:00,59.3,57.9,29.95,South,169,3.0,4.0,95,0.00,,,0.00,Wunderground v.1.15,2013-02-11 18:55:00,
2013-02-11 14:00:00,59.4,58.0,29.95,South,184,3.0,3.0,95,0.00,,,0.00,Wunderground v.1.15,2013-02-11 19:00:00,
2013-02-11 14:05:00,59.4,58.0,29.95,South,186,2.0,3.0,95,0.00,,,0.00,Wunderground v.1.15,2013-02-11 19:05:00,
2013-02-11 14:10:00,59.5,58.1,29.95,South,171,2.0,4.0,95,0.00,,,0.00,Wunderground v.1.15,2013-02-11 19:10:00,
2013-02-11 14:15:00,59.5,58.1,29.95,SSW,209,2.0,4.0,95,0.00,,,0.00,Wunderground v.1.15,2013-02-11 19:15:00,
2013-02-11 14:20:00,59.6,58.2,29.95,SW,228,1.0,2.0,95,0.00,,,0.00,Wunderground v.1.15,2013-02-11 19:20:00,
2013-02-11 14:25:00,59.6,58.2,29.95,SSE,151,2.0,2.0,95,0.00,,,0.00,Wunderground v.1.15,2013-02-11 19:25:00,
2013-02-11 14:30:00,59.6,58.2,29.95,South,186,2.0,2.0,95,0.00,,,0.00,Wunderground v.1.15,2013-02-11 19:30:00,
2013-02-11 14:35:00,59.6,58.2,29.95,SW,215,2.0,4.0,95,0.00,,,0.00,Wunderground v.1.15,2013-02-11 19:35:00,
2013-02-11 14:40:00,59.6,58.2,29.95,SW,218,1.0,1.0,95,0.00,,,0.00,Wunderground v.1.15,2013-02-11 19:40:00,
2013-02-11 14:45:00,59.6,58.2,29.95,SW,228,1.0,4.0,95,0.00,,,0.00,Wunderground v.1.15,2013-02-11 19:45:00,
2013-02-11 14:50:00,59.7,58.3,29.96,WSW,251,2.0,2.0,95,0.00,,,0.00,Wunderground v.1.15,2013-02-11 19:50:00,
2013-02-11 15:00:00,59.7,58.0,29.97,SSW,202,1.0,5.0,94,0.00,,,0.00,Wunderground v.1.15,2013-02-11 20:00:00,
2013-02-11 15:05:00,59.8,58.1,29.97,WSW,247,2.0,5.0,94,0.00,,,0.00,Wunderground v.1.15,2013-02-11 20:05:00,
2013-02-11 15:10:00,59.8,58.1,29.97,SSE,154,2.0,2.0,94,0.00,,,0.00,Wunderground v.1.15,2013-02-11 20:10:00,
2013-02-11 15:20:00,60.0,58.3,29.96,WSW,254,2.0,3.0,94,0.00,,,0.00,Wunderground v.1.15,2013-02-11 20:20:00,
2013-02-11 15:25:00,60.0,58.3,29.95,South,175,2.0,3.0,94,0.00,,,0.00,Wunderground v.1.15,2013-02-11 20:25:00,
2013-02-11 15:30:00,60.1,58.4,29.94,SSE,167,1.0,6.0,94,0.00,,,0.00,Wunderground v.1.15,2013-02-11 20:30:00,
2013-02-11 15:35:00,60.1,58.4,29.93,SSW,202,1.0,6.0,94,0.00,,,0.00,Wunderground v.1.15,2013-02-11 20:35:00,
2013-02-11 15:40:00,60.2,58.2,29.94,WNW,291,2.0,3.0,93,0.00,,,0.00,Wunderground v.1.15,2013-02-11 20:40:00,
2013-02-11 15:45:00,60.3,58.3,29.94,WSW,241,2.0,3.0,93,0.00,,,0.00,Wunderground v.1.15,2013-02-11 20:45:00,
2013-02-11 15:50:00,60.3,58.3,29.94,WSW,252,1.0,1.0,93,0.00,,,0.00,Wunderground v.1.15,2013-02-11 20:50:00,
2013-02-11 15:55:00,60.3,58.3,29.94,SSW,211,1.0,5.0,93,0.00,,,0.00,Wunderground v.1.15,2013-02-11 20:55:00,
2013-02-11 16:00:00,60.4,58.4,29.94,SSW,209,2.0,3.0,93,0.00,,,0.00,Wunderground v.1.15,2013-02-11 21:00:00,
2013-02-11 16:05:00,60.4,58.4,29.93,WSW,238,2.0,3.0,93,0.00,,,0.00,Wunderground v.1.15,2013-02-11 21:05:00,
2013-02-11 16:10:00,60.4,58.1,29.93,SW,229,1.0,3.0,92,0.00,,,0.00,Wunderground v.1.15,2013-02-11 21:10:00,
2013-02-11 16:15:00,60.4,58.1,29.93,SSW,213,1.0,3.0,92,0.00,,,0.00,Wunderground v.1.15,2013-02-11 21:15:00,
2013-02-11 16:20:00,60.3,58.0,29.93,South,188,1.0,2.0,92,0.00,,,0.00,Wunderground v.1.15,2013-02-11 21:20:00,
2013-02-11 16:25:00,60.3,58.0,29.94,SW,230,1.0,2.0,92,0.00,,,0.00,Wunderground v.1.15,2013-02-11 21:25:00,
2013-02-11 16:30:00,60.4,58.1,29.94,West,271,1.0,1.0,92,0.00,,,0.00,Wunderground v.1.15,2013-02-11 21:30:00,
2013-02-11 16:35:00,60.4,58.1,29.94,WSW,255,2.0,2.0,92,0.00,,,0.00,Wunderground v.1.15,2013-02-11 21:35:00,
2013-02-11 16:40:00,60.5,58.2,29.94,SW,227,1.0,2.0,92,0.00,,,0.00,Wunderground v.1.15,2013-02-11 21:40:00,
2013-02-11 16:45:00,60.5,58.2,29.94,WSW,237,1.0,2.0,92,0.00,,,0.00,Wunderground v.1.15,2013-02-11 21:45:00,
2013-02-11 16:50:00,60.5,58.2,29.94,SSE,167,0.0,0.0,92,0.00,,,0.00,Wunderground v.1.15,2013-02-11 21:50:00,
2013-02-11 16:55:00,60.4,58.1,29.94,SSW,212,0.0,0.0,92,0.00,,,0.00,Wunderground v.1.15,2013-02-11 21:55:00,
2013-02-11 17:00:00,60.3,58.0,29.95,SW,229,0.0,2.0,92,0.00,,,0.00,Wunderground v.1.15,2013-02-11 22:00:00,
2013-02-11 17:05:00,60.2,57.9,29.95,WSW,252,1.0,2.0,92,0.00,,,0.00,Wunderground v.1.15,2013-02-11 22:05:00,
2013-02-11 17:10:00,60.0,57.4,29.95,SW,229,1.0,4.0,91,0.00,,,0.00,Wunderground v.1.15,2013-02-11 22:10:00,
2013-02-11 17:20:00,59.8,57.2,29.95,SSW,194,1.0,1.0,91,0.00,,,0.00,Wunderground v.1.15,2013-02-11 22:20:00,
2013-02-11 17:25:00,59.6,57.0,29.95,West,268,2.0,4.0,91,0.00,,,0.00,Wunderground v.1.15,2013-02-11 22:25:00,
2013-02-11 17:30:00,59.5,56.6,29.95,SW,218,3.0,3.0,90,0.00,,,0.00,Wunderground v.1.15,2013-02-11 22:30:00,
2013-02-11 17:35:00,59.5,56.6,29.95,SSW,196,3.0,3.0,90,0.00,,,0.00,Wunderground v.1.15,2013-02-11 22:35:00,
2013-02-11 17:40:00,59.3,56.4,29.95,WSW,257,2.0,2.0,90,0.00,,,0.00,Wunderground v.1.15,2013-02-11 22:40:00,
2013-02-11 17:45:00,59.2,56.3,29.95,ESE,117,1.0,5.0,90,0.00,,,0.00,Wunderground v.1.15,2013-02-11 22:45:00,
2013-02-11 17:50:00,59.0,56.1,29.95,SW,223,2.0,2.0,90,0.00,,,0.00,Wunderground v.1.15,2013-02-11 22:50:00,
2013-02-11 17:55:00,58.9,56.0,29.95,SW,227,2.0,2.0,90,0.00,,,0.00,Wunderground v.1.15,2013-02-11 22:55:00,
2013-02-11 18:00:00,58.9,56.0,29.96,SW,227,2.0,3.0,90,0.00,,,0.00,Wunderground v.1.15,2013-02-11 23:00:00,
2013-02-11 18:05:00,58.7,55.8,29.95,SW,230,1.0,5.0,90,0.00,,,0.00,Wunderground v.1.15,2013-02-11 23:05:00,
2013-02-11 18:10:00,58.6,55.7,29.95,SW,219,1.0,2.0,90,0.00,,,0.00,Wunderground v.1.15,2013-02-11 23:10:00,
2013-02-11 18:15:00,58.5,55.9,29.95,SE,143,1.0,4.0,91,0.00,,,0.00,Wunderground v.1.15,2013-02-11 23:15:00,
2013-02-11 18:20:00,58.5,55.9,29.94,SSE,152,1.0,1.0,91,0.00,,,0.00,Wunderground v.1.15,2013-02-11 23:20:00,
2013-02-11 18:25:00,58.5,55.6,29.95,WSW,254,1.0,1.0,90,0.00,,,0.00,Wunderground v.1.15,2013-02-11 23:25:00,
2013-02-11 18:30:00,58.5,55.6,29.94,SW,225,1.0,1.0,90,0.00,,,0.00,Wunderground v.1.15,2013-02-11 23:30:00,
2013-02-11 18:35:00,58.5,55.6,29.95,SSW,211,1.0,1.0,90,0.00,,,0.00,Wunderground v.1.15,2013-02-11 23:35:00,
2013-02-11 18:40:00,58.4,55.8,29.95,SSW,192,0.0,0.0,91,0.00,,,0.00,Wunderground v.1.15,2013-02-11 23:40:00,
2013-02-11 18:45:00,58.4,55.8,29.95,WSW,257,1.0,1.0,91,0.00,,,0.00,Wunderground v.1.15,2013-02-11 23:45:00,
2013-02-11 18:50:00,58.4,55.8,29.95,SSW,212,1.0,3.0,91,0.00,,,0.00,Wunderground v.1.15,2013-02-11 23:50:00,
2013-02-11 18:55:00,58.4,55.5,29.95,SSE,165,2.0,6.0,90,0.00,,,0.00,Wunderground v.1.15,2013-02-11 23:55:00,
2013-02-11 19:00:00,58.5,55.6,29.95,WSW,248,2.0,3.0,90,0.00,,,0.00,Wunderground v.1.15,2013-02-12 00:00:00,
2013-02-11 19:05:00,58.5,55.6,29.95,WSW,242,2.0,3.0,90,0.00,,,0.00,Wunderground v.1.15,2013-02-12 00:05:00,
2013-02-11 19:10:00,58.4,55.5,29.95,SSW,204,1.0,1.0,90,0.00,,,0.00,Wunderground v.1.15,2013-02-12 00:10:00,
2013-02-11 19:15:00,58.4,55.8,29.95,SSW,200,1.0,1.0,91,0.00,,,0.00,Wunderground v.1.15,2013-02-12 00:15:00,
2013-02-11 19:20:00,58.3,55.7,29.96,SE,133,1.0,1.0,91,0.00,,,0.00,Wunderground v.1.15,2013-02-12 00:20:00,
2013-02-11 19:25:00,58.3,55.7,29.96,SSE,164,1.0,1.0,91,0.00,,,0.00,Wunderground v.1.15,2013-02-12 00:25:00,
2013-02-11 19:30:00,58.2,55.6,29.97,South,175,1.0,1.0,91,0.00,,,0.00,Wunderground v.1.15,2013-02-12 00:30:00,
2013-02-11 19:35:00,58.2,55.6,29.97,South,182,1.0,1.0,91,0.00,,,0.00,Wunderground v.1.15,2013-02-12 00:35:00,
2013-02-11 19:40:00,58.2,55.6,29.96,SW,234,1.0,1.0,91,0.00,,,0.00,Wunderground v.1.15,2013-02-12 00:40:00,
2013-02-11 19:50:00,57.9,55.3,29.96,WSW,255,1.0,1.0,91,0.00,,,0.00,Wunderground v.1.15,2013-02-12 00:50:00,
2013-02-11 20:00:00,57.7,55.1,29.96,SSW,203,0.0,0.0,91,0.00,,,0.00,Wunderground v.1.15,2013-02-12 01:00:00,
2013-02-11 20:05:00,57.6,55.0,29.96,SW,234,0.0,0.0,91,0.00,,,0.00,Wunderground v.1.15,2013-02-12 01:05:00,
2013-02-11 20:10:00,57.6,55.3,29.96,WSW,252,0.0,0.0,92,0.00,,,0.00,Wunderground v.1.15,2013-02-12 01:10:00,
2013-02-11 20:15:00,57.4,55.1,29.96,SSW,209,0.0,0.0,92,0.00,,,0.00,Wunderground v.1.15,2013-02-12 01:15:00,
2013-02-11 20:20:00,57.3,54.7,29.96,WSW,247,0.0,0.0,91,0.00,,,0.00,Wunderground v.1.15,2013-02-12 01:20:00,
2013-02-11 20:25:00,57.3,54.7,29.96,SSW,202,0.0,0.0,91,0.00,,,0.00,Wunderground v.1.15,2013-02-12 01:25:00,
2013-02-11 20:30:00,57.3,54.7,29.96,SSW,206,0.0,0.0,91,0.00,,,0.00,Wunderground v.1.15,2013-02-12 01:30:00,
2013-02-11 20:35:00,57.3,54.7,29.96,SW,227,0.0,0.0,91,0.00,,,0.00,Wunderground v.1.15,2013-02-12 01:35:00,
2013-02-11 20:40:00,57.2,54.6,29.96,SW,227,0.0,0.0,91,0.00,,,0.00,Wunderground v.1.15,2013-02-12 01:40:00,
2013-02-11 20:45:00,57.1,54.5,29.96,SSW,196,0.0,0.0,91,0.00,,,0.00,Wunderground v.1.15,2013-02-12 01:45:00,
2013-02-11 20:50:00,57.0,54.4,29.95,SE,138,0.0,0.0,91,0.00,,,0.00,Wunderground v.1.15,2013-02-12 01:50:00,
2013-02-11 20:55:00,57.0,54.4,29.96,West,265,0.0,0.0,91,0.00,,,0.00,Wunderground v.1.15,2013-02-12 01:55:00,
2013-02-11 21:00:00,56.9,54.3,29.96,West,265,0.0,0.0,91,0.00,,,0.00,Wunderground v.1.15,2013-02-12 02:00:00,
2013-02-11 21:10:00,56.7,54.4,29.96,SSW,200,0.0,0.0,92,0.00,,,0.00,Wunderground v.1.15,2013-02-12 02:10:00,
2013-02-11 21:15:00,56.7,54.4,29.96,SSW,205,0.0,0.0,92,0.00,,,0.00,Wunderground v.1.15,2013-02-12 02:15:00,
2013-02-11 21:20:00,56.6,54.3,29.96,SW,219,0.0,0.0,92,0.00,,,0.00,Wunderground v.1.15,2013-02-12 02:20:00,
2013-02-11 21:25:00,56.5,54.2,29.96,South,170,0.0,2.0,92,0.00,,,0.00,Wunderground v.1.15,2013-02-12 02:25:00,
2013-02-11 21:30:00,56.4,54.1,29.96,SSE,157,0.0,0.0,92,0.00,,,0.00,Wunderground v.1.15,2013-02-12 02:30:00,
2013-02-11 21:35:00,56.3,54.0,29.96,South,169,0.0,0.0,92,0.00,,,0.00,Wunderground v.1.15,2013-02-12 02:35:00,
2013-02-11 21:40:00,56.2,53.9,29.96,SW,222,0.0,5.0,92,0.00,,,0.00,Wunderground v.1.15,2013-02-12 02:40:00,
2013-02-11 21:45:00,56.2,53.9,29.95,SSW,194,0.0,5.0,92,0.00,,,0.00,Wunderground v.1.15,2013-02-12 02:45:00,
2013-02-11 21:50:00,56.1,53.8,29.96,SSW,194,0.0,0.0,92,0.00,,,0.00,Wunderground v.1.15,2013-02-12 02:50:00,
2013-02-11 21:55:00,56.0,53.7,29.96,South,180,0.0,0.0,92,0.00,,,0.00,Wunderground v.1.15,2013-02-12 02:55:00,
2013-02-11 22:00:00,55.9,53.9,29.96,SSW,213,0.0,0.0,93,0.00,,,0.00,Wunderground v.1.15,2013-02-12 03:00:00,
2013-02-11 22:05:00,55.9,53.9,29.96,SSW,213,0.0,1.0,93,0.00,,,0.00,Wunderground v.1.15,2013-02-12 03:05:00,
2013-02-11 22:10:00,55.8,53.8,29.96,WSW,250,0.0,0.0,93,0.00,,,0.00,Wunderground v.1.15,2013-02-12 03:10:00,
2013-02-11 22:15:00,55.8,53.8,29.96,South,184,0.0,0.0,93,0.00,,,0.00,Wunderground v.1.15,2013-02-12 03:15:00,
2013-02-11 22:20:00,55.7,53.7,29.96,West,266,1.0,1.0,93,0.00,,,0.00,Wunderground v.1.15,2013-02-12 03:20:00,
2013-02-11 22:25:00,55.6,53.6,29.96,West,265,0.0,1.0,93,0.00,,,0.00,Wunderground v.1.15,2013-02-12 03:25:00,
2013-02-11 22:30:00,55.5,53.5,29.96,South,176,1.0,1.0,93,0.00,,,0.00,Wunderground v.1.15,2013-02-12 03:30:00,
2013-02-11 22:40:00,55.4,53.4,29.95,SSW,193,0.0,0.0,93,0.00,,,0.00,Wunderground v.1.15,2013-02-12 03:40:00,
2013-02-11 22:45:00,55.4,53.4,29.95,SSW,195,0.0,0.0,93,0.00,,,0.00,Wunderground v.1.15,2013-02-12 03:45:00,
2013-02-11 22:50:00,55.3,53.3,29.95,SW,227,0.0,0.0,93,0.00,,,0.00,Wunderground v.1.15,2013-02-12 03:50:00,
2013-02-11 23:00:00,55.1,53.1,29.95,SSW,196,0.0,1.0,93,0.00,,,0.00,Wunderground v.1.15,2013-02-12 04:00:00,
2013-02-11 23:05:00,55.0,53.0,29.95,SSW,211,0.0,1.0,93,0.00,,,0.00,Wunderground v.1.15,2013-02-12 04:05:00,
2013-02-11 23:10:00,55.0,53.0,29.96,WSW,250,0.0,0.0,93,0.00,,,0.00,Wunderground v.1.15,2013-02-12 04:10:00,
2013-02-11 23:15:00,54.8,52.5,29.96,SSW,192,0.0,0.0,92,0.00,,,0.00,Wunderground v.1.15,2013-02-12 04:15:00,
2013-02-11 23:20:00,54.7,52.4,29.96,SW,228,1.0,1.0,92,0.00,,,0.00,Wunderground v.1.15,2013-02-12 04:20:00,
2013-02-11 23:30:00,54.6,52.3,29.96,West,280,1.0,1.0,92,0.00,,,0.00,Wunderground v.1.15,2013-02-12 04:30:00,
2013-02-11 23:35:00,54.6,52.3,29.96,SW,235,1.0,1.0,92,0.00,,,0.00,Wunderground v.1.15,2013-02-12 04:35:00,
2013-02-11 23:40:00,54.6,52.3,29.96,SW,221,1.0,3.0,92,0.00,,,0.00,Wunderground v.1.15,2013-02-12 04:40:00,
2013-02-11 23:45:00,54.6,52.3,29.96,SSE,164,1.0,3.0,92,0.00,,,0.00,Wunderground v.1.15,2013-02-12 04:45:00,
2013-02-11 23:50:00,54.5,52.2,29.96,SSW,209,1.0,1.0,92,0.00,,,0.00,Wunderground v.1.15,2013-02-12 04:50:00,
2013-02-11 23:55:00,54.3,52.0,29.96,SSW,207,0.0,1.0,92,0.00,,,0.00,Wunderground v.1.15,2013-02-12 04:55:00,